| time (UTC) | temp F | wind direction | speed MPH | gust MPH | rain 1hr in | rain 24hr in | rain mn in | humidity % | barometer mb |
| 20260503184530 | 64 | 246 | 7.0 | 16.0 | 0.00 | 0.00 | 0.00 | 34 | 1016.2 |
| 20260503183032 | 63 | 252 | 6.0 | 14.0 | 0.00 | 0.00 | 0.00 | 38 | 1016.6 |
| 20260503181535 | 64 | 238 | 5.0 | 11.0 | 0.00 | 0.00 | 0.00 | 41 | 1016.6 |
| 20260503180037 | 63 | 294 | 3.0 | 11.0 | 0.00 | 0.00 | 0.00 | 37 | 1016.6 |
| 20260503174535 | 62 | 220 | 4.0 | 12.0 | 0.00 | 0.00 | 0.00 | 44 | 1016.9 |
| 20260503173034 | 61 | 235 | 4.0 | 12.0 | 0.00 | 0.00 | 0.00 | 43 | 1017.3 |
| 20260503171532 | 59 | 249 | 3.0 | 11.0 | 0.00 | 0.00 | 0.00 | 47 | 1017.7 |
| 20260503081536 | 36 | 0 | 0.0 | 2.0 | 0.00 | 0.00 | 0.00 | 80 | 1017.5 |
| 20260503071532 | 36 | 0 | 0.0 | 0.0 | 0.00 | 0.00 | 0.00 | 80 | 1017.3 |
| 20260503054551 | 37 | 0 | 0.0 | 0.0 | 0.00 | 0.00 | 0.00 | 76 | 1017.8 |
| 20260503053041 | 37 | 0 | 0.0 | 0.0 | 0.00 | 0.00 | 0.00 | 76 | 1017.8 |
| 20260503051534 | 37 | 204 | 0.0 | 2.0 | 0.00 | 0.00 | 0.00 | 77 | 1017.8 |
| 20260503050031 | 38 | 90 | 0.0 | 2.0 | 0.00 | 0.00 | 0.00 | 74 | 1017.8 |
| 20260503044532 | 38 | 0 | 0.0 | 0.0 | 0.00 | 0.00 | 0.00 | 74 | 1017.7 |
| 20260503043036 | 38 | 0 | 0.0 | 0.0 | 0.00 | 0.00 | 0.00 | 73 | 1017.7 |
| 20260503041530 | 39 | 0 | 0.0 | 0.0 | 0.00 | 0.00 | 0.00 | 72 | 1017.8 |
| 20260503040037 | 39 | 0 | 0.0 | 0.0 | 0.00 | 0.00 | 0.00 | 71 | 1018.0 |
| 20260503034535 | 40 | 0 | 0.0 | 2.0 | 0.00 | 0.00 | 0.00 | 69 | 1018.1 |
| 20260503033033 | 41 | 0 | 0.0 | 2.0 | 0.00 | 0.00 | 0.00 | 66 | 1018.1 |
| 20260503031537 | 43 | 0 | 0.0 | 2.0 | 0.00 | 0.00 | 0.00 | 64 | 1018.1 |
| 20260503030032 | 44 | 0 | 0.0 | 0.0 | 0.00 | 0.00 | 0.00 | 58 | 1018.0 |
| 20260503024535 | 45 | 0 | 0.0 | 2.0 | 0.00 | 0.00 | 0.00 | 57 | 1017.9 |
| 20260503023032 | 45 | 0 | 0.0 | 0.0 | 0.00 | 0.00 | 0.00 | 58 | 1017.9 |
| 20260503021534 | 45 | 90 | 0.0 | 2.0 | 0.00 | 0.00 | 0.00 | 54 | 1017.8 |
| 20260503020034 | 46 | 103 | 1.0 | 3.0 | 0.00 | 0.00 | 0.00 | 53 | 1017.6 |
| 20260503014530 | 46 | 85 | 1.0 | 3.0 | 0.00 | 0.00 | 0.00 | 53 | 1017.3 |
| 20260503013030 | 46 | 85 | 2.0 | 3.0 | 0.00 | 0.00 | 0.00 | 52 | 1017.2 |
| 20260503011534 | 47 | 90 | 2.0 | 4.0 | 0.00 | 0.00 | 0.00 | 51 | 1017.1 |
| 20260503010037 | 47 | 77 | 3.0 | 4.0 | 0.00 | 0.00 | 0.00 | 50 | 1017.0 |
| 20260503004534 | 48 | 77 | 2.0 | 7.0 | 0.00 | 0.00 | 0.00 | 48 | 1016.9 |
| 20260503003030 | 49 | 85 | 2.0 | 6.0 | 0.00 | 0.00 | 0.00 | 47 | 1016.9 |
| 20260503001531 | 50 | 96 | 2.0 | 6.0 | 0.00 | 0.00 | 0.00 | 46 | 1016.5 |
| 20260503000035 | 50 | 94 | 3.0 | 9.0 | 0.00 | 0.00 | 0.00 | 43 | 1016.3 |
| 20260502234547 | 51 | 85 | 4.0 | 10.0 | 0.00 | 0.00 | 0.00 | 42 | 1016.2 |
| 20260502233034 | 52 | 90 | 2.0 | 8.0 | 0.00 | 0.00 | 0.00 | 41 | 1016.1 |
| 20260502231534 | 52 | 73 | 3.0 | 10.0 | 0.00 | 0.00 | 0.00 | 42 | 1016.1 |
| 20260502230031 | 53 | 114 | 4.0 | 11.0 | 0.00 | 0.00 | 0.00 | 40 | 1016.0 |
| 20260502224530 | 54 | 34 | 3.0 | 11.0 | 0.00 | 0.00 | 0.00 | 39 | 1015.9 |
| 20260502223030 | 53 | 77 | 3.0 | 11.0 | 0.00 | 0.00 | 0.00 | 39 | 1015.9 |
| 20260502221535 | 55 | 65 | 3.0 | 12.0 | 0.00 | 0.00 | 0.00 | 36 | 1016.0 |
| 20260502220035 | 54 | 121 | 4.0 | 13.0 | 0.00 | 0.00 | 0.00 | 38 | 1015.9 |
| 20260502214540 | 53 | 258 | 1.0 | 9.0 | 0.00 | 0.00 | 0.00 | 42 | 1015.8 |
| 20260502213033 | 53 | 283 | 3.0 | 11.0 | 0.00 | 0.00 | 0.00 | 39 | 1015.9 |
| 20260502211538 | 55 | 259 | 3.0 | 10.0 | 0.00 | 0.00 | 0.00 | 40 | 1015.7 |
| 20260502210032 | 54 | 252 | 2.0 | 9.0 | 0.00 | 0.00 | 0.00 | 38 | 1015.7 |
| 20260502204534 | 56 | 117 | 2.0 | 12.0 | 0.00 | 0.00 | 0.00 | 38 | 1015.8 |
| 20260502203032 | 57 | 262 | 3.0 | 12.0 | 0.00 | 0.00 | 0.00 | 35 | 1015.6 |
| 20260502201532 | 56 | 250 | 4.0 | 13.0 | 0.00 | 0.00 | 0.00 | 38 | 1015.7 |
| 20260502200034 | 56 | 85 | 2.0 | 10.0 | 0.00 | 0.00 | 0.00 | 42 | 1015.9 |
| 20260502194535 | 53 | 275 | 2.0 | 9.0 | 0.00 | 0.00 | 0.00 | 42 | 1016.0 |
| 20260502193035 | 55 | 75 | 4.0 | 10.0 | 0.00 | 0.00 | 0.00 | 36 | 1015.9 |
| 20260502191542 | 56 | 352 | 3.0 | 12.0 | 0.00 | 0.00 | 0.00 | 39 | 1016.2 |
| 20260502190033 | 56 | 250 | 2.0 | 14.0 | 0.00 | 0.00 | 0.00 | 39 | 1016.2 |